Back to catalog

FENGYUN 1C DEB

AliveSSO
NORAD 30758·DEBRIS·🇨🇳 China

Launched May 10, 1999 from Taiyuan Satellite Launch Center

Loading…

Next Passes (next 24 hours)

TLE

FreshSource: Space-Track

Epoch: Sep 14, 2026, 06:52 UTC

1 30758U 99025ATU 26257.28621213  .00001197  00000-0  60070-3 0  9999
2 30758  99.0406  25.4204 0038407 299.9106  88.8042 14.18168675  3930

Track FENGYUN 1C DEB in real time with AllMySat

Download on the App Store